Overview Statistics Trail Chart Weather Telemetry Raw packets
 

This is the latest recevied weather packets stored in our database for station/object SV9TNF-51. If no packets are shown the sender has not sent any weather packets the latest 10 day(s).

<< 42 43 44 45 46 47 48 >>
Time Temp. Humidity Pressure Rain* Wind** Luminosity Snow
1788386644 24.44° C 61% 1011.2 hPa 0 mm 5.81 m/s, 356° - -
1788386336 25° C 65% 1011.2 hPa 0 mm 5.81 m/s, 344° - -
1788386036 25° C 65% 1011.2 hPa 0 mm 6.71 m/s, 335° - -
1788385736 25° C 63% 1011.2 hPa 0 mm 4.92 m/s, 23° - -
1788385436 25° C 62% 1011.5 hPa 0 mm 6.26 m/s, 330° - -
1788385136 25° C 62% 1011.5 hPa 0 mm 5.36 m/s, 338° - -
1788384836 25.56° C 61% 1011.5 hPa 0 mm 6.26 m/s, 344° - -
1788384536 25° C 61% 1011.5 hPa 0 mm 5.81 m/s, 341° - -
1788384236 25° C 62% 1011.2 hPa 0 mm 3.13 m/s, 96° - -
1788383936 25° C 59% 1011.2 hPa 0 mm 3.58 m/s, 2° - -
1788383635 25° C 58% 1011.2 hPa 0 mm 4.92 m/s, 322° - -
1788383335 24.44° C 58% 1011.2 hPa 0 mm 4.92 m/s, 325° - -
1788383035 25° C 61% 1011.2 hPa 0 mm 6.26 m/s, 352° - -
1788382735 24.44° C 62% 1011.2 hPa 0 mm 5.36 m/s, 318° - -
1788382435 24.44° C 65% 1011.2 hPa 0 mm 4.02 m/s, 345° - -
1788382135 24.44° C 68% 1011.2 hPa 0 mm 6.71 m/s, 359° - -
1788381835 24.44° C 69% 1011.2 hPa 0 mm 8.05 m/s, 6° - -
1788381534 25° C 67% 1011.2 hPa 0 mm 3.13 m/s, 155° - -
1788381234 25° C 67% 1011.2 hPa 0 mm 0.45 m/s, 126° - -
1788380934 25° C 67% 1011.2 hPa 0 mm 5.81 m/s, 327° - -
1788380635 25° C 68% 1011.5 hPa 0 mm 8.05 m/s, 324° - -
1788380334 25° C 68% 1011.5 hPa 0 mm 5.81 m/s, 330° - -
1788380034 24.44° C 68% 1011.5 hPa 0 mm 7.6 m/s, 308° - -
1788379734 24.44° C 69% 1011.5 hPa 0 mm 3.58 m/s, 337° - -
1788379434 25° C 68% 1011.5 hPa 0 mm 6.26 m/s, 346° - -

* Rain latest hour (hover to see other rain measurements)
** Current wind speed in m/s (hover to see current wind gust speed)